Other Public Products
Issued by NWS Grand Forks, ND

Home | Current Version | Previous Version | Graphics & Text | Print | Product List | Glossary On
Versions: 1 2 3 4 5 6 7 8 9 10 11 12 13 14 15 16 17 18 19 20 21 22 23 24 25 26 27 28 29 30 31 32 33 34 35 36 37 38 39 40 41 42 43 44 45 46 47 48 49 50
000
FPUS83 KFGF 301531
OPUFGF
PRAIRIE TO PINES WEATHER ROUNDUP
NATIONAL WEATHER SERVICE EASTERN NORTH DAKOTA/GRAND FORKS ND
1000 AM CDT TUE JUN 30 2015

 **SATELLITE DATA USED TO AUGMENT SKY COVER AT AUTOMATED STATIONS**
 *****  WEATHER ACROSS EASTERN NORTH DAKOTA  *****

CITY           SKY/WX    TMP DP  RH WIND       PRES   REMARKS
GRAND FORKS    CLOUDY    65  60  84 CALM      29.96F
GRAND FORKS AF MOSUNNY   64  61  88 SE2       29.96F
GRAND CITY NWS   N/A     68 N/A N/A W1          N/A
BUXTON         NOT AVBL
DEVILS LAKE    CLOUDY    64  57  77 SE5       29.96S
FARGO          PTSUNNY   68  62  81 CALM      29.96F
WAHPETON ARPT  MOSUNNY   66  59  77 E5        29.96S
$$

 *****  WEATHER ACROSS CENTRAL AND WESTERN NORTH DAKOTA  *****

CITY           SKY/WX    TMP DP  RH WIND       PRES   REMARKS
JAMESTOWN      CLOUDY    66  60  81 SE5       29.96R
BISMARCK       LGT RAIN  67  63  87 E7        29.97R
MINOT          CLOUDY    65  62  90 CALM      29.94R FOG
MINOT AFB      DRIZZLE   64  64 100 E5        29.93F
GARRISON         N/A     67  65  93 CALM      29.96R
WILLISTON      PTSUNNY   75  60  59 NE9       29.94S HAZE
DICKINSON      CLOUDY    70  63  78 E8        29.94S
HETTINGER      CLOUDY    69  60  73 SE14      29.94F
$$

 *****  OTHER OBSERVATIONS NORTHEAST NORTH DAKOTA  *****

CITY           SKY/WX    TMP DP  RH WIND       PRES   REMARKS
WALHALLA       FAIR      66  66 100 MISG      29.97F
LANGDON        FAIR      66  61  82 CALM      29.99S
CAVALIER       FAIR      66  59  77 CALM      29.96F
GRAFTON        FAIR      66  63  88 CALM      29.97F
CANDO          FAIR      64  61  88 SE5       29.98S
FORT TOTTEN      N/A     66  63  89 SE3       29.95S
ROLLA          FAIR      63  61  94 S7        30.00R
RUGBY          NOT AVBL
 ***** THE ABOVE OBSERVATIONS ARE NON NWS ARE NOT QUALITY
        CONTROLLED AND MAY MIS-REPORT RAIN FOR SNOW...
$$

 *****  OTHER OBSERVATIONS SOUTHEAST NORTH DAKOTA *****

CITY           SKY/WX    TMP DP  RH WIND       PRES   REMARKS
COOPERSTOWN    NOT AVBL
VALLEY CITY    FAIR      64  64 100 E8        29.96S
OAKES            N/A     68  66  94 E8        29.94S
GWINNER        NOT AVBL
SHEYENNE NWR     N/A     66  62  88 E6        29.95S
BUFFALO        NOT AVBL
WYNDMERE       NOT AVBL
 ***** THE ABOVE OBSERVATIONS ARE NON NWS ARE NOT QUALITY
       CONTROLLED AND MAY MIS-REPORT RAIN FOR SNOW...
$$

  *****  WEATHER ACROSS NORTHERN MINNESOTA  *****

CITY           SKY/WX    TMP DP  RH WIND       PRES   REMARKS
FLAG ISLAND    SUNNY     63  50  63 SE3       29.99S
WARROAD        SUNNY     63  55  77 E7        30.00S
ROSEAU         SUNNY     66  57  72 SE5       29.99S
HALLOCK        MOSUNNY   68  61  77 S5        29.97S
THF RVR FALLS  SUNNY     64  57  77 SE3       29.99S
HALSTAD        NOT AVBL
FOSSTON        SUNNY     70  61  73 CALM      29.99S
BAUDETTE       SUNNY     63  53  70 E6        29.99S
WASKISH        SUNNY     64  55  72 NE7       29.98F
CROOKSTON      MOSUNNY   68  61  77 SE3       29.98S
$$
  *****  WEATHER ACROSS CENTRAL AND WEST MINNESOTA  *****

CITY           SKY/WX    TMP DP  RH WIND       PRES   REMARKS
BEMIDJI        SUNNY     65  55  69 CALM      29.98S
PARK RAPIDS    MOSUNNY   69  57  65 E3        29.97S
WADENA         SUNNY     66  57  72 CALM      29.97S
DETROIT LAKES  SUNNY     70  59  68 CALM      29.99S
MOORHEAD       PTSUNNY   66  61  82 CALM      29.97S
FERGUS FALLS   PTSUNNY   70  59  68 CALM      29.97R
ELBOW LAKE     FAIR      68  58  71 E3        29.97R
MORRIS MN      MOSUNNY   70  59  68 E7        29.95S
STAPLES        SUNNY     66  57  72 CALM      29.97S
WHEATON        MOSUNNY   64  61  88 E6        29.97S
$$
  *****  WEATHER ELSEWHERE ACROSS MINNESOTA  *****

CITY           SKY/WX    TMP DP  RH WIND       PRES   REMARKS
DULUTH         CLOUDY    57  50  77 SE8       29.98S
INTRNTL FALLS  SUNNY     62  49  62 SE8       29.99F
ELY            MOSUNNY   57  46  67 NE7       29.99F
CLOQUET        CLOUDY    57  52  82 E8        29.98F
BRAINERD       SUNNY     66  57  72 VRB5      29.97R
HIBBING        CLOUDY    60  51  72 NE7       29.99S
ALEXANDRIA     SUNNY     70  57  63 E5        29.98S
SAINT CLOUD    PTSUNNY   71  60  68 NE5       29.95S
MINNEAPOLIS    PTSUNNY   69  61  75 N8        29.93S
$$

  *****  WEATHER ACROSS SOUTH DAKOTA  *****

CITY           SKY/WX    TMP DP  RH WIND       PRES   REMARKS
SIOUX FALLS    CLOUDY    70  63  78 CALM      29.95R
BROOKINGS      CLOUDY    70  63  78 NE5       29.96R
WATERTOWN      PTSUNNY   70  62  76 E3        29.94F
HURON          CLOUDY    68  65  90 SE6       29.92F FOG
SISSETON         N/A     67  61  81 SE7       29.94S
ABERDEEN       CLOUDY    74  63  68 SE6       29.93F
MITCHELL       LGT RAIN  67  65  93 CALM      29.94F
PIERRE         CLOUDY    72  63  73 SE10      29.92R
MOBRIDGE       CLOUDY    70  67  90 S9        29.91F
RAPID CITY     PTSUNNY   76  61  59 CALM      29.95F
$$

  *****  SOME WEATHER IN NEARBY STATES *****

CITY           SKY/WX    TMP DP  RH WIND       PRES   REMARKS
GLASGOW MT     NOT AVBL
GREAT FALLS MT SUNNY     78  59  51 SW13      30.00F
CHEYENNE WY    SUNNY     80  52  37 NW6       30.21S
SCOTTSBLUFF NE MOSUNNY   74  57  55 W8        30.05F
OMAHA NE       CLOUDY    75  65  70 CALM      29.94F HAZE
DES MOINES IA  CLOUDY    73  65  75 N7        29.91F
DAVENPORT IA   SUNNY     73  61  65 N8        29.87S
CHICAGO IL     MOSUNNY   69  60  73 W7        29.81F
EAU CLAIRE WI  CLOUDY    66  57  72 NE9       29.92R
LA CROSSE WI   CLOUDY    63  59  87 N6        29.90F
$$

  *****  SOME NATIONAL WEATHER *****

CITY           SKY/WX    TMP DP  RH WIND       PRES   REMARKS
LA GUARDIA NY  MOSUNNY   79  58  48 S18       29.96F
RALEIGH NC     MOSUNNY   84  67  56 SW8       29.96F
ATLANTA GA     PTSUNNY   81  70  69 SW9       30.03S
NEW ORLEANS LA PTSUNNY   87  75  67 SW12      30.09S HX  96
OKLAHOMA CITY  MOSUNNY   81  64  56 W7        30.04S
ALBUQUERQUE NM PTSUNNY   76  51  41 N7        30.27S
SALT LAKE CITY PTSUNNY   85  54  34 SE9       30.07S
LOS ANGELES CA MOSUNNY   69  64  84 CALM      29.90R
BOISE ID       SUNNY     79  57  46 W3        30.01F
SEATTLE WA     FOG       60  57  89 S6        30.13S VSB 1/2
$$

*** WEATHER ACROSS MANITOBA...SASKATCHEWAN AND ONTARIO ***
                ***ONTARIO***

CITY           SKY/WX    TMP DP  RH WIND       PRES   REMARKS
GERALDTON      PTSUNNY   54  41  62 E14       30.00F
THUNDER BAY    MOSUNNY   59  39  47 N5        29.99R
SIOUX LOOKOUT  MOSUNNY   59  46  63 VRB8      30.03S
TORONTO        CLOUDY    66  57  72 E10       29.82F
BIG TROUT LK   MOSUNNY   57  36  44 S5        30.04S
PICKLE LAKE    PTSUNNY   57  39  51 VRB2      30.04F
DRYDEN         MOSUNNY   59  48  67 E5        30.02S
KENORA         MOSUNNY   63  50  63 S3        30.02S
$$
                *** MANITOBA***

CITY           SKY/WX    TMP DP  RH WIND       PRES   REMARKS
BRANDON        CLOUDY    63  61  94 E6        29.98F
DAUPHIN        SUNNY     63  59  88 VRB2      29.97F
ISLAND LAKE    PTSUNNY   59  45  58 VRB2      30.01S
PILOT MOUND      N/A    N/A N/A N/A SE2         N/A
THE PAS        CLOUDY    64  57  77 S6        29.95F
THOMPSON       CLOUDY    59  54  82 SW5       29.96F
WINNIPEG       PTSUNNY   68  59  73 S7        29.98S
LYNN LAKE      CLOUDY    59  57  94 SW3       29.92F
CHURCHILL      MOSUNNY   59  43  55 N8        29.92F
GILLAM         PTSUNNY   61  45  55 SW8       29.97F
$$
                ***SASKATCHEWAN***

CITY           SKY/WX    TMP DP  RH WIND       PRES   REMARKS
ESTEVAN        LGT RAIN  64  63  94 NE6       29.95F SMOKE
KINDERSLEY     LGT RAIN  59  54  82 NE13      29.96  VSB 1
LLOYDMINSTER   CLOUDY    61  55  82 N6        29.98R
PRINCE ALBERT  SMOKE     64  63  94 NW2       29.93S VSB 1
REGINA         LGT RAIN  61  61 100 W3        29.97R VSB 5/8


USA.gov is the U.S. government's official web portal to all federal, state and local government web resources and services.